Archiv

Tageswerte

Alle gespeicherten Messwerte deiner Wetterstation.

Ausgewählter Tag01.12.2023
← Vortag Nächster Tag → Heute
Messpunkte288
Max Temperatur-1,3 °C
Min Temperatur-3,8 °C
Ø Temperatur-2,2 °C
Regen0,0 mm
Stärkste Böe9,3 km/h

Messwerte vom 01.12.2023

288 gespeicherte Messwerte

Diagramm anzeigen
ZeitTemperaturFeuchteDruckWindBöeRichtungRegenUVHelligkeit
23:59-3,8 °C94 %998,0 hPa0,2 km/h2,4 km/h315°0,0 mm
23:54-3,8 °C94 %998,0 hPa0,4 km/h2,4 km/h315°0,0 mm
23:49-3,8 °C94 %998,0 hPa1,5 km/h5,0 km/h298°0,0 mm
23:44-3,8 °C94 %998,0 hPa1,0 km/h5,0 km/h294°0,0 mm
23:39-3,7 °C94 %998,0 hPa1,2 km/h5,3 km/h106°0,0 mm
23:34-3,7 °C94 %998,0 hPa0,2 km/h2,1 km/h88°0,0 mm
23:29-3,7 °C94 %997,0 hPa0,6 km/h2,7 km/h0,0 mm
23:24-3,7 °C94 %997,0 hPa1,0 km/h3,9 km/h292°0,0 mm
23:19-3,6 °C94 %997,0 hPa1,8 km/h5,3 km/h292°0,0 mm
23:14-3,6 °C94 %997,0 hPa1,3 km/h3,5 km/h299°0,0 mm
23:09-3,6 °C94 %997,0 hPa0,3 km/h2,1 km/h320°0,0 mm
23:04-3,6 °C94 %997,0 hPa0,5 km/h2,7 km/h330°0,0 mm
22:59-3,5 °C94 %998,0 hPa0,8 km/h2,7 km/h299°0,0 mm
22:54-3,5 °C94 %998,0 hPa1,0 km/h3,5 km/h312°0,0 mm
22:49-3,4 °C94 %998,0 hPa0,3 km/h2,4 km/h292°0,0 mm
22:44-3,4 °C94 %998,0 hPa0,5 km/h2,7 km/h292°0,0 mm
22:39-3,4 °C94 %998,0 hPa0,7 km/h2,1 km/h259°0,0 mm
22:34-3,4 °C94 %998,0 hPa1,4 km/h3,9 km/h290°0,0 mm
22:29-3,4 °C94 %998,0 hPa0,2 km/h2,1 km/h321°0,0 mm
22:24-3,3 °C94 %998,0 hPa1,2 km/h4,7 km/h269°0,0 mm
22:19-3,2 °C94 %998,0 hPa1,4 km/h6,1 km/h310°0,0 mm
22:14-3,2 °C94 %998,0 hPa0,9 km/h2,7 km/h265°0,0 mm
22:09-3,1 °C94 %998,0 hPa0,4 km/h2,7 km/h302°0,0 mm
22:04-3,1 °C94 %998,0 hPa0,9 km/h3,2 km/h306°0,0 mm
21:59-3,1 °C94 %997,0 hPa1,7 km/h8,5 km/h298°0,0 mm
21:54-3,1 °C94 %997,0 hPa1,1 km/h5,6 km/h292°0,0 mm
21:49-3,1 °C94 %997,0 hPa0,8 km/h5,3 km/h308°0,0 mm
21:44-3,1 °C94 %998,0 hPa0,9 km/h3,2 km/h239°0,0 mm
21:39-3,1 °C94 %998,0 hPa1,4 km/h5,3 km/h57°0,0 mm
21:34-3,1 °C94 %998,0 hPa2,1 km/h6,8 km/h340°0,0 mm
21:29-3,1 °C94 %997,0 hPa1,3 km/h3,5 km/h322°0,0 mm
21:24-3,1 °C94 %997,0 hPa1,2 km/h4,7 km/h302°0,0 mm
21:19-3,1 °C94 %997,0 hPa1,2 km/h3,5 km/h82°0,0 mm
21:14-3,1 °C94 %997,0 hPa2,0 km/h3,5 km/h118°0,0 mm
21:09-3,1 °C94 %997,0 hPa1,8 km/h3,9 km/h319°0,0 mm
21:04-3,1 °C94 %997,0 hPa2,0 km/h5,6 km/h250°0,0 mm
20:59-3,1 °C94 %997,0 hPa2,5 km/h6,4 km/h328°0,0 mm
20:54-3,1 °C94 %997,0 hPa2,4 km/h8,5 km/h307°0,0 mm
20:49-3,1 °C94 %997,0 hPa1,2 km/h3,2 km/h293°0,0 mm
20:44-3,0 °C94 %997,0 hPa1,7 km/h5,0 km/h301°0,0 mm
20:39-3,0 °C94 %997,0 hPa1,6 km/h3,2 km/h279°0,0 mm
20:34-3,0 °C94 %997,0 hPa0,9 km/h2,7 km/h315°0,0 mm
20:29-3,0 °C94 %997,0 hPa1,4 km/h3,5 km/h27°0,0 mm
20:24-3,0 °C94 %997,0 hPa1,5 km/h3,5 km/h314°0,0 mm
20:19-3,0 °C94 %997,0 hPa0,7 km/h2,7 km/h292°0,0 mm
20:14-3,0 °C94 %997,0 hPa1,5 km/h2,7 km/h292°0,0 mm
20:09-3,0 °C94 %997,0 hPa1,1 km/h3,5 km/h292°0,0 mm
20:04-3,0 °C95 %997,0 hPa0,9 km/h2,7 km/h303°0,0 mm
19:59-3,0 °C95 %997,0 hPa0,1 km/h1,8 km/h68°0,0 mm
19:54-3,0 °C94 %997,0 hPa0,2 km/h1,8 km/h68°0,0 mm
19:49-3,0 °C94 %997,0 hPa0,6 km/h2,7 km/h68°0,0 mm
19:44-3,0 °C94 %997,0 hPa0,3 km/h2,7 km/h337°0,0 mm
19:39-3,0 °C94 %997,0 hPa0,3 km/h2,7 km/h292°0,0 mm
19:34-3,0 °C94 %997,0 hPa0,2 km/h2,7 km/h68°0,0 mm
19:29-3,0 °C94 %997,0 hPa0,3 km/h2,1 km/h90°0,0 mm
19:24-3,0 °C94 %997,0 hPa1,3 km/h3,2 km/h308°0,0 mm
19:19-2,9 °C94 %997,0 hPa1,0 km/h3,5 km/h292°0,0 mm
19:14-2,9 °C94 %997,0 hPa0,7 km/h2,4 km/h292°0,0 mm
19:09-2,9 °C94 %997,0 hPa1,4 km/h3,5 km/h283°0,0 mm
19:04-2,9 °C94 %997,0 hPa0,5 km/h3,2 km/h259°0,0 mm
18:59-2,9 °C94 %997,0 hPa1,9 km/h3,9 km/h183°0,0 mm
18:54-2,9 °C94 %997,0 hPa1,0 km/h2,7 km/h248°0,0 mm
18:49-2,9 °C94 %997,0 hPa0,8 km/h3,2 km/h109°0,0 mm
18:44-2,8 °C95 %997,0 hPa1,2 km/h9,3 km/h43°0,0 mm
18:39-2,8 °C95 %997,0 hPa0,6 km/h2,7 km/h315°0,0 mm
18:34-2,8 °C95 %997,0 hPa0,8 km/h3,5 km/h333°0,0 mm
18:29-2,7 °C95 %997,0 hPa0,9 km/h5,3 km/h338°0,0 mm
18:24-2,7 °C95 %997,0 hPa0,7 km/h3,5 km/h315°0,0 mm
18:19-2,7 °C95 %997,0 hPa1,0 km/h3,5 km/h316°0,0 mm
18:14-2,7 °C95 %997,0 hPa1,3 km/h3,2 km/h315°0,0 mm
18:09-2,6 °C95 %997,0 hPa2,2 km/h5,3 km/h306°0,0 mm
18:04-2,5 °C95 %997,0 hPa1,1 km/h3,2 km/h328°0,0 mm
17:59-2,5 °C95 %997,0 hPa0,9 km/h3,5 km/h14°0,0 mm
17:54-2,5 °C96 %997,0 hPa1,0 km/h3,9 km/h315°0,0 mm
17:49-2,5 °C96 %997,0 hPa1,1 km/h2,4 km/h315°0,0 mm
17:44-2,5 °C96 %997,0 hPa0,7 km/h3,5 km/h315°0,0 mm
17:39-2,4 °C96 %997,0 hPa0,6 km/h2,7 km/h315°0,0 mm
17:34-2,4 °C96 %997,0 hPa1,2 km/h3,5 km/h309°0,0 mm
17:29-2,3 °C96 %997,0 hPa0,8 km/h6,4 km/h315°0,0 mm
17:24-2,2 °C96 %997,0 hPa1,5 km/h4,7 km/h315°0,0 mm
17:19-2,2 °C96 %997,0 hPa0,9 km/h6,8 km/h315°0,0 mm
17:14-2,1 °C96 %997,0 hPa0,7 km/h2,1 km/h315°0,0 mm
17:09-2,1 °C96 %997,0 hPa0,5 km/h2,4 km/h315°0,0 mm
17:04-2,0 °C96 %997,0 hPa1,0 km/h3,9 km/h304°0,0 mm
16:59-2,0 °C96 %995,9 hPa0,7 km/h6,4 km/h310°0,0 mm
16:54-2,0 °C96 %995,9 hPa0,8 km/h2,7 km/h315°0,0 mm
16:49-2,0 °C96 %995,9 hPa0,4 km/h3,5 km/h315°0,0 mm
16:44-2,0 °C96 %997,0 hPa0,8 km/h3,5 km/h315°0,0 mm
16:39-2,0 °C96 %997,0 hPa0,5 km/h2,4 km/h330°0,0 mm
16:34-2,0 °C96 %997,0 hPa1,0 km/h3,2 km/h320°0,0 mm
16:29-1,9 °C96 %995,9 hPa1,0 km/h3,2 km/h0,0 mm
16:24-1,9 °C96 %995,9 hPa0,8 km/h5,6 km/h308°0,0 mm
16:19-1,9 °C96 %995,9 hPa0,4 km/h5,0 km/h82°0,0 mm
16:14-1,9 °C96 %995,9 hPa1,0 km/h3,2 km/h315°0,0 mm
16:09-1,9 °C96 %995,9 hPa0,5 km/h2,4 km/h318°0,0 mm
16:04-1,9 °C96 %995,9 hPa0,7 km/h2,7 km/h330°0,0 mm
15:59-1,9 °C96 %995,9 hPa0,9 km/h2,7 km/h352°0,0 mm
15:54-1,9 °C96 %995,9 hPa1,1 km/h4,2 km/h315°0,0 mm
15:49-1,9 °C96 %995,9 hPa0,4 km/h2,7 km/h0,0 mm
15:44-1,9 °C96 %995,9 hPa0,9 km/h3,9 km/h22°0,0 mm
15:39-1,9 °C96 %995,9 hPa1,0 km/h3,5 km/h318°0,0 mm
15:34-1,9 °C96 %995,9 hPa0,6 km/h2,7 km/h329°0,0 mm
15:29-1,9 °C96 %995,9 hPa0,1 km/h1,8 km/h315°0,0 mm
15:24-1,9 °C96 %995,9 hPa1,7 km/h5,3 km/h315°0,0 mm
15:19-2,0 °C96 %995,9 hPa0,8 km/h3,9 km/h315°0,0 mm
15:14-2,0 °C96 %995,9 hPa0,8 km/h2,7 km/h315°0,0 mm
15:09-2,0 °C96 %995,9 hPa1,5 km/h6,4 km/h315°0,0 mm
15:04-2,0 °C96 %995,9 hPa1,2 km/h3,9 km/h315°0,0 mm
14:59-2,0 °C96 %995,9 hPa0,5 km/h3,5 km/h315°0,0 mm
14:54-2,0 °C96 %995,9 hPa1,5 km/h6,8 km/h336°0,0 mm
14:49-1,9 °C96 %995,9 hPa1,3 km/h6,8 km/h330°0,0 mm
14:44-1,9 °C96 %995,9 hPa0,6 km/h3,2 km/h315°0,0 mm
14:39-1,9 °C96 %995,9 hPa0,4 km/h3,5 km/h315°0,0 mm
14:34-1,9 °C96 %995,9 hPa1,0 km/h3,9 km/h315°0,0 mm
14:29-1,9 °C96 %995,9 hPa0,4 km/h2,7 km/h315°0,0 mm
14:24-1,9 °C96 %995,9 hPa1,2 km/h3,5 km/h315°0,0 mm
14:19-1,9 °C96 %995,9 hPa0,6 km/h2,4 km/h315°0,0 mm
14:14-1,9 °C96 %995,9 hPa0,4 km/h2,7 km/h315°0,0 mm
14:09-1,9 °C96 %995,9 hPa1,0 km/h3,5 km/h315°0,0 mm
14:04-1,9 °C96 %995,9 hPa0,2 km/h2,4 km/h315°0,0 mm
13:59-1,9 °C96 %995,9 hPa1,5 km/h2,7 km/h315°0,0 mm
13:54-1,8 °C96 %995,9 hPa0,8 km/h2,4 km/h315°0,0 mm
13:49-1,8 °C96 %995,9 hPa1,2 km/h3,2 km/h302°0,0 mm
13:44-1,8 °C96 %995,9 hPa0,5 km/h2,4 km/h292°0,0 mm
13:39-1,8 °C95 %995,9 hPa1,2 km/h3,2 km/h292°0,0 mm
13:34-1,8 °C96 %995,9 hPa0,5 km/h2,1 km/h315°0,0 mm
13:29-1,7 °C95 %995,9 hPa0,5 km/h2,7 km/h301°0,0 mm
13:24-1,7 °C95 %995,9 hPa0,8 km/h2,4 km/h292°0,0 mm
13:19-1,8 °C95 %995,9 hPa0,1 km/h1,8 km/h292°0,0 mm
13:14-1,8 °C95 %995,9 hPa0,7 km/h2,7 km/h292°0,0 mm
13:09-1,7 °C95 %995,9 hPa0,5 km/h2,7 km/h292°0,0 mm
13:04-1,6 °C95 %995,9 hPa1,2 km/h3,9 km/h300°0,0 mm
12:59-1,6 °C95 %995,9 hPa1,0 km/h2,1 km/h292°0,0 mm
12:54-1,6 °C95 %995,9 hPa0,5 km/h2,7 km/h292°0,0 mm
12:49-1,6 °C95 %995,9 hPa0,5 km/h4,7 km/h292°0,0 mm
12:44-1,5 °C95 %995,9 hPa0,8 km/h5,3 km/h310°0,0 mm
12:39-1,5 °C95 %995,9 hPa1,3 km/h2,4 km/h327°0,0 mm
12:34-1,5 °C95 %995,9 hPa0,4 km/h2,4 km/h338°0,0 mm
12:29-1,5 °C95 %995,9 hPa0,5 km/h2,4 km/h329°0,0 mm
12:24-1,5 °C95 %995,9 hPa0,4 km/h2,4 km/h315°0,0 mm
12:19-1,5 °C95 %995,9 hPa0,4 km/h2,1 km/h315°0,0 mm
12:14-1,6 °C95 %995,9 hPa0,5 km/h2,7 km/h315°0,0 mm
12:09-1,6 °C95 %995,9 hPa0,2 km/h1,8 km/h315°0,0 mm
12:04-1,7 °C95 %995,9 hPa0,8 km/h3,5 km/h315°0,0 mm
11:59-1,6 °C95 %995,9 hPa0,5 km/h2,1 km/h315°0,0 mm
11:54-1,6 °C95 %995,9 hPa0,6 km/h2,4 km/h315°0,0 mm
11:49-1,6 °C95 %995,9 hPa0,4 km/h2,4 km/h315°0,0 mm
11:44-1,5 °C95 %995,9 hPa0,5 km/h2,4 km/h315°0,0 mm
11:39-1,5 °C95 %995,9 hPa0,6 km/h3,2 km/h308°0,0 mm
11:34-1,4 °C95 %995,9 hPa0,3 km/h2,7 km/h292°0,0 mm
11:29-1,4 °C94 %995,9 hPa0,5 km/h2,7 km/h292°0,0 mm
11:24-1,3 °C94 %995,9 hPa0,5 km/h2,1 km/h292°0,0 mm
11:19-1,3 °C94 %995,9 hPa0,2 km/h2,4 km/h292°0,0 mm
11:14-1,4 °C94 %995,9 hPa0,3 km/h2,1 km/h248°0,0 mm
11:09-1,4 °C94 %995,9 hPa0,0 km/h0,0 km/h338°0,0 mm
11:04-1,4 °C94 %995,9 hPa0,3 km/h2,1 km/h331°0,0 mm
10:59-1,5 °C94 %995,9 hPa0,0 km/h0,0 km/h338°0,0 mm
10:54-1,5 °C94 %995,9 hPa0,4 km/h2,7 km/h350°0,0 mm
10:49-1,5 °C94 %995,9 hPa0,4 km/h1,8 km/h0,0 mm
10:44-1,5 °C94 %995,9 hPa0,3 km/h2,1 km/h0,0 mm
10:39-1,5 °C94 %995,9 hPa0,0 km/h0,0 km/h0,0 mm
10:34-1,5 °C94 %995,9 hPa0,0 km/h0,0 km/h0,0 mm
10:29-1,5 °C94 %994,9 hPa0,0 km/h0,0 km/h0,0 mm
10:24-1,6 °C94 %994,9 hPa0,0 km/h0,0 km/h0,0 mm
10:19-1,6 °C94 %994,9 hPa0,0 km/h0,0 km/h0,0 mm
10:14-1,7 °C94 %994,9 hPa0,0 km/h0,0 km/h0,0 mm
10:09-1,7 °C94 %994,9 hPa0,0 km/h0,0 km/h0,0 mm
10:04-1,7 °C94 %994,9 hPa0,1 km/h1,8 km/h22°0,0 mm
09:59-1,7 °C94 %994,9 hPa0,3 km/h2,7 km/h0,0 mm
09:54-1,6 °C94 %994,9 hPa0,0 km/h0,0 km/h338°0,0 mm
09:49-1,7 °C94 %994,9 hPa0,1 km/h1,8 km/h315°0,0 mm
09:44-1,7 °C94 %994,9 hPa0,0 km/h0,0 km/h315°0,0 mm
09:39-1,7 °C94 %994,9 hPa0,2 km/h2,1 km/h315°0,0 mm
09:34-1,7 °C94 %994,9 hPa0,2 km/h2,1 km/h315°0,0 mm
09:29-1,7 °C94 %994,9 hPa0,3 km/h2,7 km/h315°0,0 mm
09:24-1,7 °C94 %994,9 hPa0,0 km/h0,0 km/h315°0,0 mm
09:19-1,7 °C94 %994,9 hPa0,0 km/h0,0 km/h315°0,0 mm
09:14-1,7 °C94 %994,9 hPa1,2 km/h3,5 km/h315°0,0 mm
09:09-1,6 °C95 %994,9 hPa0,9 km/h5,3 km/h315°0,0 mm
09:04-1,5 °C95 %994,9 hPa0,5 km/h6,4 km/h323°0,0 mm
08:59-1,5 °C95 %994,9 hPa0,0 km/h0,0 km/h338°0,0 mm
08:54-1,6 °C95 %994,9 hPa0,0 km/h0,0 km/h338°0,0 mm
08:49-1,7 °C95 %994,9 hPa0,0 km/h0,0 km/h338°0,0 mm
08:44-1,7 °C95 %994,9 hPa0,0 km/h0,0 km/h338°0,0 mm
08:39-1,7 °C95 %994,9 hPa0,4 km/h2,1 km/h338°0,0 mm
08:34-1,7 °C95 %994,9 hPa0,0 km/h0,0 km/h338°0,0 mm
08:29-1,7 °C95 %994,9 hPa0,1 km/h1,8 km/h338°0,0 mm
08:24-1,7 °C95 %994,9 hPa0,0 km/h0,0 km/h338°0,0 mm
08:19-1,8 °C95 %994,9 hPa0,0 km/h0,0 km/h338°0,0 mm
08:14-1,8 °C95 %993,9 hPa0,0 km/h0,0 km/h338°0,0 mm
08:09-1,8 °C95 %993,9 hPa0,1 km/h1,8 km/h338°0,0 mm
08:04-1,8 °C95 %993,9 hPa0,4 km/h2,4 km/h338°0,0 mm
07:59-1,8 °C95 %993,9 hPa0,0 km/h0,0 km/h338°0,0 mm
07:54-1,8 °C95 %993,9 hPa0,0 km/h0,0 km/h338°0,0 mm
07:49-1,8 °C95 %993,9 hPa0,0 km/h0,0 km/h338°0,0 mm
07:44-1,8 °C95 %993,9 hPa0,0 km/h0,0 km/h338°0,0 mm
07:39-1,8 °C95 %993,9 hPa0,0 km/h0,0 km/h338°0,0 mm
07:34-1,8 °C95 %993,9 hPa0,0 km/h0,0 km/h338°0,0 mm
07:29-1,8 °C95 %993,9 hPa0,0 km/h0,0 km/h22°0,0 mm
07:24-1,9 °C95 %993,9 hPa0,0 km/h0,0 km/h45°0,0 mm
07:19-1,9 °C94 %993,9 hPa0,0 km/h0,0 km/h45°0,0 mm
07:14-1,8 °C94 %993,9 hPa0,0 km/h0,0 km/h68°0,0 mm
07:09-1,8 °C94 %993,9 hPa0,0 km/h0,0 km/h68°0,0 mm
07:04-1,8 °C94 %993,9 hPa0,0 km/h0,0 km/h68°0,0 mm
06:59-1,8 °C94 %993,9 hPa0,0 km/h0,0 km/h112°0,0 mm
06:54-1,8 °C94 %993,9 hPa0,0 km/h0,0 km/h112°0,0 mm
06:49-1,8 °C94 %993,9 hPa0,0 km/h0,0 km/h112°0,0 mm
06:44-1,9 °C94 %993,9 hPa0,0 km/h0,0 km/h112°0,0 mm
06:39-1,9 °C94 %993,9 hPa0,0 km/h0,0 km/h112°0,0 mm
06:34-1,9 °C94 %993,9 hPa0,0 km/h0,0 km/h112°0,0 mm
06:29-1,9 °C94 %993,9 hPa0,0 km/h0,0 km/h112°0,0 mm
06:24-1,9 °C94 %993,9 hPa0,0 km/h0,0 km/h112°0,0 mm
06:19-1,9 °C94 %993,9 hPa0,0 km/h0,0 km/h112°0,0 mm
06:14-1,9 °C94 %993,9 hPa0,0 km/h0,0 km/h112°0,0 mm
06:09-1,9 °C94 %993,9 hPa0,0 km/h0,0 km/h112°0,0 mm
06:04-1,9 °C94 %993,9 hPa0,0 km/h0,0 km/h112°0,0 mm
05:59-2,0 °C94 %993,9 hPa0,0 km/h0,0 km/h112°0,0 mm
05:54-2,0 °C94 %993,9 hPa0,0 km/h0,0 km/h112°0,0 mm
05:49-2,0 °C94 %993,9 hPa0,0 km/h0,0 km/h112°0,0 mm
05:44-2,0 °C94 %993,9 hPa0,0 km/h0,0 km/h112°0,0 mm
05:39-2,0 °C95 %993,9 hPa0,0 km/h0,0 km/h112°0,0 mm
05:34-2,1 °C95 %993,9 hPa0,0 km/h0,0 km/h112°0,0 mm
05:29-2,2 °C94 %993,9 hPa0,0 km/h0,0 km/h112°0,0 mm
05:24-2,2 °C94 %993,9 hPa0,0 km/h0,0 km/h112°0,0 mm
05:19-2,3 °C95 %993,9 hPa0,0 km/h0,0 km/h112°0,0 mm
05:14-2,4 °C95 %993,9 hPa0,0 km/h0,0 km/h112°0,0 mm
05:09-2,5 °C95 %993,9 hPa0,0 km/h0,0 km/h112°0,0 mm
05:04-2,5 °C94 %993,9 hPa0,0 km/h0,0 km/h112°0,0 mm
04:59-2,5 °C94 %992,9 hPa0,0 km/h0,0 km/h112°0,0 mm
04:54-2,5 °C94 %992,9 hPa0,0 km/h0,0 km/h112°0,0 mm
04:49-2,5 °C94 %992,9 hPa0,0 km/h0,0 km/h112°0,0 mm
04:44-2,5 °C94 %992,9 hPa0,0 km/h0,0 km/h112°0,0 mm
04:39-2,5 °C94 %992,9 hPa0,0 km/h0,0 km/h112°0,0 mm
04:34-2,5 °C94 %992,9 hPa0,0 km/h0,0 km/h112°0,0 mm
04:29-2,5 °C94 %992,9 hPa0,0 km/h0,0 km/h112°0,0 mm
04:24-2,4 °C94 %992,9 hPa0,0 km/h0,0 km/h112°0,0 mm
04:19-2,4 °C94 %992,9 hPa0,0 km/h0,0 km/h112°0,0 mm
04:14-2,4 °C94 %992,9 hPa0,0 km/h0,0 km/h112°0,0 mm
04:09-2,5 °C94 %992,9 hPa0,0 km/h0,0 km/h112°0,0 mm
04:04-2,5 °C94 %992,9 hPa0,0 km/h0,0 km/h112°0,0 mm
03:59-2,6 °C94 %992,9 hPa0,0 km/h0,0 km/h112°0,0 mm
03:54-2,7 °C94 %992,9 hPa0,0 km/h0,0 km/h112°0,0 mm
03:49-2,7 °C94 %992,9 hPa0,0 km/h0,0 km/h112°0,0 mm
03:44-2,7 °C94 %992,9 hPa0,0 km/h0,0 km/h112°0,0 mm
03:39-2,6 °C94 %992,9 hPa0,0 km/h0,0 km/h112°0,0 mm
03:34-2,5 °C94 %992,9 hPa0,0 km/h0,0 km/h112°0,0 mm
03:29-2,5 °C94 %992,9 hPa0,0 km/h0,0 km/h112°0,0 mm
03:24-2,4 °C95 %992,9 hPa0,0 km/h0,0 km/h112°0,0 mm
03:19-2,4 °C94 %992,9 hPa0,0 km/h0,0 km/h112°0,0 mm
03:14-2,4 °C94 %992,9 hPa0,0 km/h0,0 km/h112°0,0 mm
03:09-2,4 °C95 %992,9 hPa0,0 km/h0,0 km/h112°0,0 mm
03:04-2,4 °C95 %992,9 hPa0,0 km/h0,0 km/h112°0,0 mm
02:59-2,4 °C95 %992,9 hPa0,0 km/h0,0 km/h112°0,0 mm
02:54-2,4 °C95 %992,9 hPa0,0 km/h0,0 km/h112°0,0 mm
02:49-2,4 °C95 %992,9 hPa0,0 km/h0,0 km/h112°0,0 mm
02:44-2,4 °C95 %992,9 hPa0,0 km/h0,0 km/h112°0,0 mm
02:39-2,4 °C95 %992,9 hPa0,0 km/h0,0 km/h90°0,0 mm
02:34-2,4 °C95 %992,9 hPa0,0 km/h0,0 km/h90°0,0 mm
02:29-2,4 °C95 %992,9 hPa0,0 km/h0,0 km/h90°0,0 mm
02:24-2,4 °C95 %992,9 hPa0,0 km/h0,0 km/h90°0,0 mm
02:19-2,4 °C96 %992,9 hPa0,0 km/h0,0 km/h90°0,0 mm
02:14-2,3 °C96 %992,9 hPa0,0 km/h0,0 km/h90°0,0 mm
02:09-2,3 °C96 %992,9 hPa0,0 km/h0,0 km/h90°0,0 mm
02:04-2,3 °C96 %992,9 hPa0,0 km/h0,0 km/h90°0,0 mm
01:59-2,3 °C96 %992,9 hPa0,0 km/h0,0 km/h68°0,0 mm
01:54-2,2 °C96 %992,9 hPa0,0 km/h0,0 km/h68°0,0 mm
01:49-2,2 °C96 %992,9 hPa0,0 km/h0,0 km/h68°0,0 mm
01:44-2,1 °C96 %992,9 hPa0,0 km/h0,0 km/h68°0,0 mm
01:39-2,1 °C96 %992,9 hPa0,0 km/h0,0 km/h68°0,0 mm
01:34-2,1 °C96 %992,9 hPa0,0 km/h0,0 km/h68°0,0 mm
01:29-2,0 °C96 %992,9 hPa0,0 km/h0,0 km/h68°0,0 mm
01:24-2,0 °C96 %992,9 hPa0,0 km/h0,0 km/h68°0,0 mm
01:19-2,0 °C96 %992,9 hPa0,0 km/h0,0 km/h68°0,0 mm
01:14-1,9 °C96 %992,9 hPa0,0 km/h0,0 km/h68°0,0 mm
01:09-1,9 °C96 %992,9 hPa0,0 km/h0,0 km/h68°0,0 mm
01:04-1,9 °C96 %992,9 hPa0,0 km/h0,0 km/h68°0,0 mm
00:59-2,0 °C96 %992,9 hPa0,0 km/h0,0 km/h68°0,0 mm
00:54-2,0 °C96 %992,9 hPa0,0 km/h0,0 km/h68°0,0 mm
00:49-2,0 °C96 %992,9 hPa0,0 km/h0,0 km/h68°0,0 mm
00:44-1,9 °C96 %992,9 hPa0,0 km/h0,0 km/h68°0,0 mm
00:39-1,9 °C96 %992,9 hPa0,0 km/h0,0 km/h68°0,0 mm
00:34-2,0 °C96 %992,9 hPa0,0 km/h0,0 km/h68°0,0 mm
00:29-2,0 °C96 %992,9 hPa0,0 km/h0,0 km/h68°0,0 mm
00:24-2,0 °C96 %992,9 hPa0,0 km/h0,0 km/h68°0,0 mm
00:19-1,9 °C96 %992,9 hPa0,0 km/h0,0 km/h68°0,0 mm
00:14-1,9 °C96 %992,9 hPa0,0 km/h0,0 km/h68°0,0 mm
00:09-2,0 °C96 %992,9 hPa0,0 km/h0,0 km/h68°0,0 mm
00:04-2,0 °C95 %992,9 hPa0,0 km/h0,0 km/h68°0,0 mm